Weather History for KHFD - March, 2013

Change the Weather History Date:

Tuesday, March 12, 2013

  Actual Average Record
Temperature  
Mean Temperature 50 °F -  
Max Temperature 55 °F 45 °F 75 °F (1977)
Min Temperature 44 °F 25 °F 4 °F (1984)
Degree Days  
Heating Degree Days 16    
Moisture  
Dew Point 49 °F    
Average Humidity 89    
Maximum Humidity 100    
Minimum Humidity 71    
Precipitation  
Precipitation 0.90 in - - ()
Sea Level Pressure  
Sea Level Pressure 29.84 in    
Wind  
Wind Speed 9 mph (South)    
Max Wind Speed 17 mph    
Max Gust Speed 31 mph    
Visibility 6 miles    
Events Rain    
Averages and records for this station are not official NWS values.
T = Trace of Precipitation, MM = Missing Value Source: NWS Daily Summary

Daily Weather History Graph

Daily Weather History Graph

Search for Another Location

Airport or City:

Trip Planner

Search our weather history database for the weather conditions in past years. The results will help you decide how hot, cold, wet, or windy it might be!

Date:

Astronomy

Mar. 12, 2013 Rise Set
Actual Time 7:07 AM EDT 6:54 PM EDT
Civil Twilight 6:39 AM EDT 7:21 PM EDT
Nautical Twilight 6:07 AM EDT 7:54 PM EDT
Astronomical Twilight 5:34 AM EDT 8:26 PM EDT
Moon 7:10 AM EDT (3/12) 8:08 PM EDT (3/12)
Length of Visible Light 12h 42m
Length of Day
11h 46m
New Moon, 1% of the Moon is Illuminated
Mar 12
New Moon
Mar 19
First Quarter
Mar 27
Full
Apr 3
Last Quarter
Apr 10
New

Hourly Weather History & Observations

Time (EDT) Temp. Windchill Dew Point Humidity Pressure Visibility Wind Dir Wind Speed Gust Speed Precip Events Conditions
12:53 AM 46.9 °F - 44.1 °F 90% 30.12 in 10.0 mi SSE 5.8 mph - N/A   Overcast
1:53 AM 46.9 °F - 44.1 °F 90% 30.08 in 10.0 mi SE 6.9 mph - N/A   Mostly Cloudy
2:06 AM 46.4 °F 42.9 °F 44.6 °F 93% 30.08 in 10.0 mi SSE 6.9 mph - N/A   Scattered Clouds
2:53 AM 48.0 °F - 44.1 °F 86% 30.06 in 10.0 mi Variable 5.8 mph - N/A   Clear
3:53 AM 48.0 °F - 44.1 °F 86% 30.03 in 10.0 mi SSW 4.6 mph - N/A   Clear
4:53 AM 48.0 °F - 45.0 °F 89% 30.04 in 10.0 mi South 4.6 mph - N/A   Mostly Cloudy
5:53 AM 48.9 °F - 45.0 °F 86% 30.02 in 10.0 mi South 4.6 mph - N/A   Overcast
6:53 AM 50.0 °F - 45.0 °F 83% 30.00 in 10.0 mi South 4.6 mph - N/A   Overcast
7:53 AM 51.1 °F - 45.0 °F 80% 29.99 in 10.0 mi SSE 4.6 mph - 0.00 in   Overcast
8:53 AM 52.0 °F - 46.0 °F 80% 29.99 in 10.0 mi South 5.8 mph - N/A   Overcast
9:53 AM 53.1 °F - 48.0 °F 83% 29.98 in 10.0 mi South 8.1 mph - 0.00 in Rain Light Rain
10:53 AM 53.1 °F - 48.9 °F 86% 29.96 in 8.0 mi SSE 8.1 mph - 0.00 in Rain Light Rain
11:27 AM 53.6 °F - 50.0 °F 88% 29.95 in 6.0 mi SSE 9.2 mph - 0.00 in Rain Light Rain
11:53 AM 53.1 °F - 50.0 °F 89% 29.94 in 4.0 mi SSE 9.2 mph - 0.03 in Rain Light Rain
12:19 PM 53.6 °F - 50.0 °F 88% 29.92 in 3.0 mi SSE 11.5 mph - 0.04 in Rain Rain
12:53 PM 53.1 °F - 50.0 °F 89% 29.91 in 3.0 mi South 10.4 mph 19.6 mph 0.09 in Rain Rain
1:00 PM 51.8 °F - 50.0 °F 94% 29.90 in 4.0 mi SSE 9.2 mph - 0.01 in Rain Rain
1:12 PM 53.6 °F - 50.0 °F 88% 29.90 in 4.0 mi SSE 9.2 mph - 0.02 in Rain Light Rain
1:53 PM 53.1 °F - 51.1 °F 93% 29.88 in 3.0 mi SSE 11.5 mph - 0.06 in Rain Rain
2:53 PM 54.0 °F - 52.0 °F 93% 29.83 in 4.0 mi SSE 16.1 mph 20.7 mph 0.08 in Rain Light Rain
3:05 PM 53.6 °F - 51.8 °F 94% 29.81 in 5.0 mi SSE 12.7 mph 23.0 mph 0.01 in Rain Light Rain
3:50 PM 53.6 °F - 51.8 °F 94% 29.78 in 2.5 mi SSE 15.0 mph 19.6 mph 0.13 in Rain Rain
3:53 PM 54.0 °F - 52.0 °F 93% 29.78 in 3.0 mi South 15.0 mph 19.6 mph 0.13 in Rain Rain
4:00 PM 53.6 °F - 51.8 °F 94% 29.77 in 3.0 mi SSE 15.0 mph - 0.02 in Rain Rain
4:15 PM 55.4 °F - 51.8 °F 88% 29.76 in 4.0 mi South 13.8 mph 21.9 mph 0.05 in Rain Rain
4:53 PM 55.0 °F - 53.1 °F 93% 29.73 in 2.5 mi SSE 15.0 mph 23.0 mph 0.17 in Rain Rain
5:01 PM 55.4 °F - 53.6 °F 94% 29.72 in 3.0 mi South 15.0 mph 31.1 mph 0.01 in Rain Rain
5:28 PM 55.4 °F - 53.6 °F 94% 29.70 in 2.0 mi SSE 11.5 mph 25.3 mph 0.10 in Rain Heavy Rain
5:40 PM 55.4 °F - 53.6 °F 94% 29.70 in 3.0 mi SSE 16.1 mph 25.3 mph 0.15 in Rain Rain
5:53 PM 55.0 °F - 53.1 °F 93% 29.69 in 1.5 mi South 16.1 mph 24.2 mph 0.23 in Rain Heavy Rain
6:22 PM 55.4 °F - 53.6 °F 94% 29.70 in 2.5 mi South 15.0 mph 20.7 mph 0.10 in Rain Light Rain
6:34 PM 55.4 °F - 53.6 °F 94% 29.70 in 2.5 mi South 11.5 mph - 0.11 in Rain Light Rain
6:39 PM 55.4 °F - 53.6 °F 94% 29.70 in 3.0 mi South 12.7 mph 18.4 mph 0.11 in Rain Light Rain
6:53 PM 55.0 °F - 53.1 °F 93% 29.70 in 2.5 mi South 16.1 mph 23.0 mph 0.11 in Rain Light Rain
7:06 PM 55.4 °F - 53.6 °F 94% 29.70 in 4.0 mi South 16.1 mph 26.5 mph 0.00 in Rain Light Rain
7:12 PM 55.4 °F - 53.6 °F 94% 29.70 in 4.0 mi South 17.3 mph 25.3 mph 0.00 in Rain Light Rain
7:25 PM 53.6 °F - 53.6 °F 100% 29.70 in 6.0 mi South 16.1 mph 26.5 mph 0.00 in   Overcast
7:53 PM 54.0 °F - 53.1 °F 97% 29.72 in 6.0 mi SSW 8.1 mph 17.3 mph 0.00 in   Overcast
8:24 PM 53.6 °F - 51.8 °F 94% 29.73 in 8.0 mi SSW 11.5 mph 18.4 mph N/A   Overcast
8:53 PM 53.1 °F - 51.1 °F 93% 29.74 in 9.0 mi South 9.2 mph - N/A   Overcast
9:44 PM 48.2 °F - 44.6 °F 87% 29.77 in 4.0 mi NW 11.5 mph 21.9 mph 0.00 in Rain Light Rain
9:53 PM 48.0 °F - 44.1 °F 86% 29.77 in 9.0 mi NW 8.1 mph 18.4 mph 0.00 in   Overcast
10:33 PM 46.4 °F 41.5 °F 42.8 °F 87% 29.80 in 10.0 mi NNW 10.4 mph - N/A   Overcast
10:45 PM 46.4 °F 42.4 °F 39.2 °F 76% 29.80 in 10.0 mi NW 8.1 mph - N/A   Overcast
10:53 PM 45.0 °F 39.7 °F 37.9 °F 76% 29.81 in 10.0 mi NW 10.4 mph 16.1 mph N/A   Overcast
11:11 PM 44.6 °F 38.8 °F 37.4 °F 76% 29.80 in 10.0 mi NW 11.5 mph - N/A   Overcast
11:53 PM 44.1 °F 39.5 °F 35.1 °F 71% 29.82 in 10.0 mi NNW 8.1 mph - N/A   Mostly Cloudy